Location: Del Amo
(33.8464°N, 118.2104°W)
Time: 10:42:08
(UTC+00:00)

A-11 Canister half - Visible Passes

Search period start: 07 September 2024 00:00
Search period end: 17 September 2024 00:00
Orbit: 1515 x 1684 km, 47.2° (Epoch: 06 September)

Date Brightness Start Highest point End Pass type
(mag) Time Alt. Az. Time Alt. Az. Time Alt. Az.
07 Sep 8.8 03:38:10 10° SW 03:47:29 71° SE 03:56:40 10° ENE visible
07 Sep 9.6 05:43:55 10° W 05:52:47 47° NNW 05:57:27 28° NE visible
07 Sep 10.3 07:51:18 10° WNW 08:03:15 27° NE 08:08:03 10° ENE visible
07 Sep 9.3 10:01:38 33° NW 10:06:10 59° NNE 10:15:34 10° ESE visible
07 Sep 9.1 12:02:04 10° WNW 12:11:01 51° SW 12:20:16 10° SSE visible
08 Sep 8.9 03:15:15 10° SW 03:24:31 67° SE 03:33:40 10° ENE visible
08 Sep 9.6 05:20:48 10° W 05:29:44 49° NNW 05:35:42 22° NE visible
08 Sep 10.2 07:28:12 10° WNW 07:43:52 13° ENE 07:44:56 10° ENE visible
08 Sep 9.3 09:42:16 55° N 09:43:07 57° NNE 09:52:27 10° ESE visible
08 Sep 9.0 11:40:40 16° WNW 11:48:04 55° SW 11:57:24 10° SSE visible
09 Sep 9.0 02:52:20 10° SW 03:01:34 63° SE 03:10:39 10° ENE visible
09 Sep 9.5 04:57:41 10° W 05:06:41 51° NNW 05:13:46 17° NE visible
09 Sep 10.1 07:05:06 10° WNW 07:24:30 - ENE 07:11:56 34° NNW visible
09 Sep 9.7 09:22:53 42° ENE 09:22:53 42° ENE 09:29:20 10° ESE visible
09 Sep 8.9 11:21:17 37° WNW 11:25:08 59° SW 11:34:30 10° SSE visible
10 Sep 9.1 02:29:26 10° SSW 02:38:37 59° SE 02:47:38 10° ENE visible
10 Sep 9.5 04:34:34 10° WSW 04:43:39 53° NNW 04:51:46 13° NE visible
10 Sep 10.0 06:42:01 10° WNW 06:49:56 35° N 06:49:56 35° N visible
10 Sep 10.5 08:48:02 10° NW 09:03:25 21° E 09:06:12 10° E visible
10 Sep 8.8 11:01:47 62° SW 11:02:10 62° SW 11:11:35 10° SE visible
10 Sep 10.3 13:01:32 10° W 13:05:50 14° WSW 13:10:12 10° SSW visible
11 Sep 9.5 04:11:28 10° WSW 04:20:36 56° NNW 04:29:40 10° NE visible
11 Sep 10.0 06:18:54 10° WNW 06:27:13 35° N 06:27:53 35° N visible
11 Sep 10.9 08:25:03 10° NW 08:43:46 - E 08:26:02 14° NW visible
11 Sep 9.3 10:42:07 47° SSE 10:42:07 47° SSE 10:48:40 10° SE visible
11 Sep 10.1 12:40:29 14° WSW 12:42:56 16° SW 12:48:00 10° SSW visible
12 Sep 9.4 03:48:22 10° WSW 03:57:35 58° NNW 04:06:41 10° NE visible
12 Sep 10.0 05:55:47 10° WNW 06:04:06 36° N 06:05:49 33° NNE visible
12 Sep 10.8 08:02:03 10° NW 08:03:59 17° NW 08:03:59 17° NW visible
12 Sep 10.2 10:22:17 26° SE 10:22:17 26° SE 10:25:43 10° SE visible
12 Sep 10.1 12:20:37 17° SW 12:20:37 17° SW 12:25:40 10° SSW visible
13 Sep 9.4 03:25:16 10° WSW 03:34:33 61° NNW 03:43:42 10° NE visible
13 Sep 10.0 05:32:38 10° WNW 05:41:00 36° N 05:43:44 30° NNE visible
13 Sep 10.6 07:39:03 10° NW 07:41:54 21° NW 07:41:54 21° NW visible
13 Sep 10.9 10:02:13 12° SE 10:02:13 12° SE 10:02:46 10° SE visible
13 Sep 10.3 12:00:33 16° SSW 12:00:33 16° SSW 12:03:14 10° SSW visible
14 Sep 9.4 03:02:11 10° WSW 03:11:31 64° NNW 03:20:43 10° NE visible
14 Sep 10.0 05:09:31 10° WNW 05:17:54 36° N 05:21:40 27° NE visible
14 Sep 10.4 07:16:02 10° NW 07:19:49 25° NW 07:19:49 25° NW visible
14 Sep 10.7 11:40:17 11° SSW 11:40:17 11° SSW 11:40:45 10° S visible
15 Sep 9.3 02:39:06 10° WSW 02:48:30 67° NNW 02:57:44 10° NE visible
15 Sep 10.0 04:46:22 10° WNW 04:54:48 37° N 04:59:35 23° NE visible
15 Sep 10.3 06:53:01 10° NW 06:57:44 30° NNW 06:57:44 30° NNW visible
16 Sep 9.3 02:16:02 10° WSW 02:25:29 70° NNW 02:34:46 10° NE visible
16 Sep 10.0 04:23:13 10° WNW 04:31:42 37° N 04:37:30 19° NE visible
16 Sep 10.1 06:30:00 10° NW 06:35:39 34° NNW 06:35:39 34° NNW visible
